W0QQ Weather Reports


Display with metric or nautical units.
time (UTC)temp
F
wind
direction
speed
MPH
gust
MPH
rain 1hr
in
rain 24hr
in
rain mn
in
humidity
%
barometer
mb
20260906104506 76 114 0.0 0.0 0.00 0.00 0.00 85 1012.5
20260906103012 76 115 0.0 2.0 0.00 0.00 0.00 85 1012.4
20260906101503 76 11 0.0 3.0 0.00 0.00 0.00 86 1012.4
20260906100003 76 11 1.0 4.0 0.00 0.00 0.00 87 1012.2
20260906094606 76 11 1.0 3.0 0.00 0.00 0.00 88 1012.2
20260906093059 77 105 0.0 3.0 0.00 0.00 0.00 88 1012.3
20260906091556 77 108 0.0 2.0 0.00 0.00 0.00 87 1012.2
20260906090055 77 107 1.0 3.0 0.00 0.00 0.00 86 1012.2
20260906084556 77 107 0.0 3.0 0.00 0.00 0.00 86 1012.1
20260906083051 77 128 1.0 3.0 0.00 0.00 0.00 84 1012.0
20260906081548 78 11 0.0 0.0 0.00 0.00 0.00 83 1011.8
20260906080047 78 126 0.0 0.0 0.00 0.00 0.00 82 1011.8
20260906074545 78 126 0.0 1.0 0.00 0.00 0.00 81 1011.8
20260906073043 79 126 0.0 0.0 0.00 0.00 0.00 80 1011.8
20260906071541 79 11 0.0 1.0 0.00 0.00 0.00 79 1011.8
20260906070039 79 11 0.0 0.0 0.00 0.00 0.00 77 1011.8
20260906064537 80 126 0.0 1.0 0.00 0.00 0.00 76 1012.0
20260906063036 81 126 1.0 2.0 0.00 0.00 0.00 76 1012.0
20260906061532 81 126 0.0 2.0 0.00 0.00 0.00 75 1012.1
20260906060031 81 11 0.0 3.0 0.00 0.00 0.00 74 1012.0
20260906054528 82 126 1.0 2.0 0.00 0.00 0.00 73 1012.3
20260906053025 83 126 0.0 2.0 0.00 0.00 0.00 72 1012.3
20260906051523 83 126 0.0 2.0 0.00 0.00 0.00 72 1012.3
20260906050021 83 11 0.0 2.0 0.00 0.00 0.00 71 1012.2
20260906044520 83 11 1.0 3.0 0.00 0.00 0.00 71 1012.1
20260906043028 83 11 1.0 4.0 0.00 0.00 0.00 71 1012.3
20260906041519 84 11 1.0 3.0 0.00 0.00 0.00 70 1012.1
20260906040019 84 11 0.0 3.0 0.00 0.00 0.00 70 1012.1
20260906034532 84 125 1.0 4.0 0.00 0.00 0.00 69 1012.0
20260906033018 85 11 1.0 3.0 0.00 0.00 0.00 69 1011.9
20260906031526 85 128 1.0 3.0 0.00 0.00 0.00 69 1011.8
20260906030017 85 11 1.0 3.0 0.00 0.00 0.00 69 1011.7
20260906024516 85 109 1.0 3.0 0.00 0.00 0.00 69 1011.3
20260906023015 85 11 1.0 2.0 0.00 0.00 0.00 67 1011.2
20260906021515 86 97 0.0 3.0 0.00 0.00 0.00 66 1010.9
20260906020014 87 97 0.0 2.0 0.00 0.00 0.00 65 1010.6
20260906014515 88 97 1.0 3.0 0.00 0.00 0.00 63 1010.6
20260906013014 89 98 1.0 3.0 0.00 0.00 0.00 62 1010.4
20260906011513 90 93 1.0 5.0 0.00 0.00 0.00 60 1010.3
20260906010013 91 93 2.0 5.0 0.00 0.00 0.00 59 1010.3
20260906004512 91 72 1.0 4.0 0.00 0.00 0.00 57 1010.2
20260906003012 92 64 2.0 4.0 0.00 0.00 0.00 56 1010.2
20260906001516 93 122 1.0 3.0 0.00 0.00 0.00 53 1010.1
20260906000011 94 216 0.0 0.0 0.00 0.00 0.00 51 1010.0
20260905234511 96 216 0.0 1.0 0.00 0.00 0.00 49 1010.0
20260905233014 97 216 0.0 4.0 0.00 0.00 0.00 47 1010.0
20260905231514 97 191 1.0 4.0 0.00 0.00 0.00 43 1009.9
20260905230009 98 201 1.0 3.0 0.00 0.00 0.00 44 1009.9
20260905224509 98 198 0.0 5.0 0.00 0.00 0.00 42 1009.9
20260905223007 99 11 0.0 8.0 0.00 0.00 0.00 43 1009.9
20260905221505 100 11 2.0 7.0 0.00 0.00 0.00 40 1010.0
20260905220004 101 199 0.0 3.0 0.00 0.00 0.00 40 1010.3
20260905214510 101 248 1.0 4.0 0.00 0.00 0.00 40 1010.3
20260905213001 101 127 2.0 7.0 0.00 0.00 0.00 40 1010.5
20260905211609 102 11 2.0 6.0 0.00 0.00 0.00 39 1010.6
20260905210116 102 220 1.0 3.0 0.00 0.00 0.00 39 1010.9
20260905204600 102 215 0.0 2.0 0.00 0.00 0.00 42 1011.1
20260905203055 102 226 1.0 5.0 0.00 0.00 0.00 40 1011.2
20260905201554 102 11 3.0 9.0 0.00 0.00 0.00 39 1011.5
20260905200115 102 120 3.0 8.0 0.00 0.00 0.00 39 1011.6
20260905194553 103 11 2.0 10.0 0.00 0.00 0.00 40 1011.7
20260905193050 102 180 0.0 8.0 0.00 0.00 0.00 43 1011.9
20260905191550 101 250 1.0 5.0 0.00 0.00 0.00 45 1012.1
20260905190047 102 203 2.0 10.0 0.00 0.00 0.00 39 1012.2
20260905184551 102 11 1.0 9.0 0.00 0.00 0.00 42 1012.4
20260905183044 101 114 1.0 8.0 0.00 0.00 0.00 42 1012.6
20260905181546 101 205 4.0 9.0 0.00 0.00 0.00 42 1012.8
20260905180042 100 127 0.0 10.0 0.00 0.00 0.00 44 1013.0
20260905174534 100 197 0.0 6.0 0.00 0.00 0.00 45 1013.1
20260905173041 99 11 3.0 11.0 0.00 0.00 0.00 46 1013.4
20260905171527 98 220 1.0 6.0 0.00 0.00 0.00 47 1013.6
20260905170024 98 251 0.0 4.0 0.00 0.00 0.00 52 1013.7
20260905164522 97 11 0.0 5.0 0.00 0.00 0.00 52 1013.9
20260905163016 96 291 2.0 9.0 0.00 0.00 0.00 54 1014.0
20260905161512 94 213 1.0 10.0 0.00 0.00 0.00 55 1013.9
20260905160006 93 11 3.0 8.0 0.00 0.00 0.00 56 1013.6
20260905154502 92 224 1.0 8.0 0.00 0.00 0.00 58 1013.7
20260905153057 91 11 2.0 8.0 0.00 0.00 0.00 59 1013.4
20260905151604 90 11 2.0 5.0 0.00 0.00 0.00 60 1013.3
20260905150050 89 11 2.0 4.0 0.00 0.00 0.00 61 1013.3
20260905144548 88 209 1.0 5.0 0.00 0.00 0.00 63 1013.3
20260905143041 85 11 1.0 5.0 0.00 0.00 0.00 68 1013.3
20260905141537 82 208 2.0 4.0 0.00 0.00 0.00 73 1013.3
20260905140034 80 11 0.0 2.0 0.00 0.00 0.00 78 1013.2
20260905134536 78 212 0.0 4.0 0.00 0.00 0.00 79 1013.2
20260905133025 76 11 0.0 5.0 0.00 0.00 0.00 81 1012.9
20260905131523 75 11 1.0 3.0 0.00 0.00 0.00 83 1012.8
20260905130021 74 11 0.0 3.0 0.00 0.00 0.00 84 1012.7
20260905124524 74 185 0.0 1.0 0.00 0.00 0.00 85 1012.5
20260905123050 74 11 0.0 2.0 0.00 0.00 0.00 85 1012.4
20260905121518 73 11 0.0 2.0 0.00 0.00 0.00 84 1012.2
20260905120014 74 11 0.0 1.0 0.00 0.00 0.00 83 1012.1
20260905114519 74 197 0.0 0.0 0.00 0.00 0.00 82 1011.8
20260905113013 74 11 0.0 2.0 0.00 0.00 0.00 83 1011.7
20260905111512 74 11 0.0 5.0 0.00 0.00 0.00 82 1011.7
20260905110011 73 11 2.0 8.0 0.00 0.00 0.00 83 1011.7